Location: Unspecified
(0.0000°N, 0.0000°E)
Time: 09:24:22
(UTC+00:00)

S-56A Canister/Altair - Visible Passes

Search period start: 01 April 2015 00:00
Search period end: 11 April 2015 00:00
Orbit: 634 x 2501 km, 38.9° (Epoch: 30 March)

Date Brightness Start Highest point End Pass type
(mag) Time Alt. Az. Time Alt. Az. Time Alt. Az.
01 Apr 10.1 03:56:23 11° S 03:56:23 11° S 03:56:33 10° SSE visible
03 Apr 11.5 21:55:03 10° N 21:56:32 11° N 21:56:32 11° N visible
04 Apr 11.5 21:22:37 10° N 21:25:47 12° NNE 21:25:47 12° NNE visible
05 Apr 11.4 20:50:39 10° N 20:53:09 11° NNE 20:55:03 11° NNE visible
05 Apr 11.6 22:51:39 10° NNW 22:52:29 12° NNW 22:52:29 12° NNW visible
06 Apr 11.4 22:18:40 10° NNW 22:21:46 16° NNW 22:21:46 16° NNW visible
07 Apr 11.2 21:45:44 10° NNW 21:51:04 20° N 21:51:04 20° N visible
08 Apr 11.1 21:12:52 10° NNW 21:20:23 22° NNE 21:20:23 22° NNE visible
08 Apr 11.7 23:17:36 10° NW 23:17:50 11° NW 23:17:50 11° NW visible
09 Apr 11.0 20:40:07 10° NNW 20:49:45 21° NNE 20:49:45 21° NNE visible
09 Apr 11.4 22:44:23 10° NW 22:47:12 18° NW 22:47:12 18° NW visible
10 Apr 11.0 20:07:30 10° N 20:16:37 19° NNE 20:19:09 19° NE visible
10 Apr 11.1 22:11:14 10° NW 22:16:37 26° NNW 22:16:37 26° NNW visible
